Regional Weather Roundup
Issued by NWS

Home | Current Version | Previous Version | Graphics & Text | Print | Product List | Glossary On
Versions: 1 2 3 4 5 6 7 8 9 10 11 12 13 14 15 16 17 18 19 20 21 22 23 24 25 26 27 28 29 30 31 32 33 34 35 36 37 38 39 40 41 42 43 44 45 46 47 48 49 50
000
ASUS43 KDMX 250807
RWRIA

WEATHER ROUNDUP FOR IOWA
NATIONAL WEATHER SERVICE DES MOINES IA
200 AM CST TUE NOV 25 2014

NOTE: "FAIR" INDICATES FEW OR NO CLOUDS BELOW 12,000 FEET WITH NO
SIGNIFICANT WEATHER AND/OR OBSTRUCTIONS TO VISIBILITY.

* - THESE STATIONS ARE NOT NWS STATIONS...THUS NOT UNDER NWS
QUALITY CONTROL.  THEY ALSO DO NOT REPORT WEATHER SUCH
AS PRECIPITATION OR FOG.

IAZ001>003-012>014-020>022-031>034-043>046-250900-
   NORTHWEST IOWA

CITY           SKY/WX    TMP DP  RH WIND       PRES   REMARKS
CARROLL *      CLEAR     19  10  68 NW14      30.05R WCI   6
CHEROKEE *     CLEAR     18   9  68 W5        30.06R WCI  11
DENISON *      CLEAR     19   9  63 NW7       30.06R WCI  10
LE MARS *      CLEAR     16   9  73 W3        30.08S
ORANGE CITY *  CLEAR     12   7  79 NW6       30.05R WCI   3
SHELDON *      CLEAR     12   7  79 W6        30.03S WCI   3
SIOUX CITY     CLEAR     19   7  59 NW9       30.10R WCI   8
SPENCER        CLEAR     12   8  84 W9        30.02S WCI   0
STORM LAKE *   CLEAR     16   9  73 NW12      30.04R WCI   3
$$

IAZ055>058-069>071-079>083-090>094-250900-
   SOUTHWEST IOWA

CITY           SKY/WX    TMP DP  RH WIND       PRES   REMARKS
ATLANTIC *     CLEAR     19  10  68 NW7       30.09R WCI  10
AUDUBON *      CLEAR     19   9  63 NW9       30.06R WCI   9
CLARINDA *     CLEAR     23  10  58 NW7       30.12R WCI  15
COUNCIL BLFS * CLEAR     21   7  53 NW8       30.09R WCI  12
CRESTON *      CLEAR     21  14  73 NW14      30.05S WCI   8
HARLAN  *      CLEAR     18  10  73 W10       30.12R WCI   6
LAMONI         CLEAR     22  16  78 NW13      30.05R WCI  10
RED OAK *      CLEAR     21  10  63 NW10      30.10S WCI  10
SHENANDOAH *   CLEAR     21  10  63 CALM      30.13R
$$

IAZ047>049-059>061-072>074-084-250900-
   CENTRAL IOWA

CITY           SKY/WX    TMP DP  RH WIND       PRES   REMARKS
AMES           CLEAR     20  13  74 NW14      30.03R WCI   7
ANKENY *       CLEAR     21  14  73 NW17      30.04R WCI   7
CHARITON *     PTCLDY    23  16  74 NW14      30.03R WCI  11
DES MOINES     CLEAR     23  14  68 NW16      30.04R WCI  10
GRINNELL*      CLOUDY    21  18  86 NW13      30.00R WCI   9
KNOXVILLE *    CLOUDY    23  16  74 NW15G21   30.02R WCI  10
MARSHALLTOWN   CLOUDY    20  15  81 NW21      29.99R WCI   4
PELLA *        CLOUDY    25  18  74 NW14G22   30.03R WCI  13
PERRY *          N/A     21  16  79 NW13      30.05R WCI   9
$$

IAZ004>006-015-016-023>025-035-036-250900-
   NORTH CENTRAL IOWA

CITY           SKY/WX    TMP DP  RH WIND       PRES   REMARKS
ALGONA *       CLEAR     16  10  79 NW12      30.00S WCI   3
CLARION *      FLURRIES  16  12  86 NW16      30.00R WCI   0
ESTHERVILLE    CLEAR     14   8  77 NW15      30.00R WCI  -1
FORT DODGE *   CLEAR     18  10  73 NW8       30.03R WCI   7
MASON CITY       N/A     13   9  84 NW16      29.98R WCI  -3
FOREST CITY *  CLEAR     16  12  86 NW9       29.98R WCI   4
IOWA FALLS *   MOCLDY    18  12  79 NW15      30.00R WCI   3
$$

IAZ007>011-017>019-026>030-037>042-050>054-066-250900-
   NORTHEAST IOWA

CITY           SKY/WX    TMP DP  RH WIND       PRES   REMARKS
CEDAR RAPIDS   CLOUDY    17  12  80 NW17      29.97R WCI   1
CHARLES CITY * FLURRIES  14   9  79 NW13      29.97R WCI   0
CLINTON *      CLOUDY    19  12  73 W14       29.96R WCI   6
DECORAH *      CLOUDY    18  12  79 NW9G15    29.90R WCI   6
DUBUQUE        CLOUDY    17  12  80 NW13      29.91R WCI   4
MONTICELLO *   CLOUDY    18  12  79 W14       29.95R WCI   4
OELWEIN *      CLOUDY    16  10  79 NW14      29.95R WCI   1
WATERLOO       CLOUDY    14   9  80 NW9       29.98R WCI   2
$$

IAZ064-065-067-068-078-250900-
   EAST CENTRAL IOWA

CITY           SKY/WX    TMP DP  RH WIND       PRES   REMARKS
DAVENPORT      CLOUDY    20  14  77 W15       29.95R WCI   6
MT. PLEASANT * CLOUDY    23  18  80 NW10      30.00R WCI  12
MUSCATINE *    CLOUDY    23  16  74 W16G24    30.00R WCI  10
QUAD CITIES    CLOUDY    21  15  78 W10       29.96R WCI  10
$$

IAZ062-063-075>077-085>089-095>099-250900-
   SOUTHEAST IOWA

CITY           SKY/WX    TMP DP  RH WIND       PRES   REMARKS
BURLINGTON     CLOUDY    25  18  74 W15G25    30.00R WCI  13
FAIRFIELD *    CLOUDY    25  19  80 NW13G20   30.00R WCI  13
FORT MADISON * CLOUDY    27  21  80 NW13G20   30.01R WCI  16
KEOKUK *       CLOUDY    27  19  74 NW17G28   30.02R WCI  14
OSKALOOSA *    CLOUDY    25  19  80 NW16      30.02R WCI  12
CENTERVILLE *  MOCLDY    25  18  74 NW15G23   30.04R WCI  12
OTTUMWA        CLOUDY    26  17  68 NW21G26   30.01R WCI  12
WASHINGTON *   CLOUDY    23  19  86 NW18G26   30.00R WCI   9
$$

ABBREVIATIONS USED IN REMARKS
   TC - TEMPERATURES IN CELSIUS
  WCI - WIND CHILL INDEX
   HX - HEAT INDEX
  VSB - VISIBILITY
$$




USA.gov is the U.S. government's official web portal to all federal, state and local government web resources and services.